Вернуться в каталог

OPS 4682 DEB

АктивенPO
NORAD 18784·DEBRIS·🇺🇸 United States

Запущен Apr 3, 1965 с Vandenberg Space Force Base

Loading…

Ближайшие Пролёты (ближайшие 24 часа)

TLE

СвежийSource: Space-Track

Эпоха: Sep 14, 2026, 06:14 UTC

1 18784U 65027AL  26257.26038419 -.00000258  00000-0 -91542-3 0  9994
2 18784  90.2596   6.4617 0039426 238.4104 149.3566 12.97120560813932

Отслеживайте OPS 4682 DEB в реальном времени с AllMySat

Download on the App Store